sat.trackr.live / text

‹ back to catalog

ICEYE-X55

NORAD 64581 · 2025-135BF

PAYLOAD ACTIVE UNKNOWN

§ Identity

Operator
Country
FIN
Launch date
2025-06-23
Launch site
AFWTR
Launch vehicle
Mass (kg)
RCS (m²)

External: N2YO · Heavens-Above · Gunter

§ Orbital elements

Epoch: 2026-09-21T22:01:58.517760Z

Period
96.28 min
Inclination
97.7820°
Eccentricity
0.0003717
Mean motion
14.95681527 rev/d
Perigee alt
577.7 km
Apogee alt
582.8 km
Semi-major
6,958.4 km
B*
1.6681e-4
RAAN
18.9733°
Arg perigee
45.2291°
Mean anomaly
314.9232°
Rev number
6,837

§ Raw data

ICEYE-X551 64581U 25135BF  26264.91803840  .00001798  00000+0  16681-3 0  99922 64581  97.7820  18.9733 0003717  45.2291 314.9232 14.95681527 68377

JSON: /api/v1/satellites/64581 · /tle

For live sub-satellite position, see the globe view (requires WebGL).

§ Visibility from observer

Set your observer location to see the next 7 days of passes ≥ 10°. The values pass through the URL so the page stays shareable.

No JS? Fill the form by hand. The geolocation button needs JavaScript.

§ Radio — SatNOGS DB

ModeDescriptionDownlinkUplink
DVB-S2 8PSK 8/9 8.240 GHz–8.360 GHz
FM S-band telemetry 2.270 GHz

2 transmitters · refreshed weekly from db.satnogs.org